Weather History for Imperial, NE

Change the Weather History Date:

Sunday, March 2, 2014

  Actual Average Record
Temperature  
Mean Temperature 1 °F 36 °F  
Max Temperature 6 °F 49 °F 79 °F (1901)
Min Temperature -4 °F 22 °F -7 °F (1947)
Degree Days  
Heating Degree Days 64 29  
Month to date heating degree days 123 59  
Cooling Degree Days 0 0  
Month to date cooling degree days 0 0  
Year to date cooling degree days 0 0  
Moisture  
Dew Point -7 °F    
Average Humidity 71    
Maximum Humidity 79    
Minimum Humidity 62    
Precipitation  
Precipitation 0.00 in 0.01 in 1.01 in (1940)
Sea Level Pressure  
Sea Level Pressure 30.49 in    
Wind  
Wind Speed 6 mph (East)    
Max Wind Speed 12 mph    
Max Gust Speed 14 mph    
Visibility 10 miles    
Events      
T = Trace of Precipitation, MM = Missing Value Source: NWS Daily Summary

Daily Weather History Graph

Daily Weather History Graph

Search for Another Location

Airport:

Trip Planner

Search our weather history database for the weather conditions in past years. The results will help you decide how hot, cold, wet, or windy it might be!

Date:

Astronomy

Mar. 02, 2014 Rise Set
Actual Time 6:18 AM MST 5:39 PM MST
Civil Twilight 5:51 AM MST 6:06 PM MST
Nautical Twilight 5:19 AM MST 6:38 PM MST
Astronomical Twilight 4:48 AM MST 7:09 PM MST
Moon 6:50 AM MST (3/2) 7:38 PM MST (3/2)
Length of Visible Light 12h 15m
Length of Day
11h 20m
Waxing Crescent, 3% of the Moon is Illuminated
Mar 2
Waxing Crescent
Mar 8
First Quarter
Mar 16
Full
Mar 23
Last Quarter
Mar 30
New

Hourly Weather History & Observations

Time (MST) Temp. Windchill Dew Point Humidity Pressure Visibility Wind Dir Wind Speed Gust Speed Precip Events Conditions
12:53 AM -2.0 °F -17.7 °F -8.0 °F 76% 30.51 in 10.0 mi NE 9.2 mph - N/A   Overcast
1:53 AM -2.0 °F -16.6 °F -9.0 °F 72% 30.53 in 10.0 mi ENE 8.1 mph - N/A   Overcast
2:53 AM -2.0 °F -17.7 °F -9.0 °F 72% 30.52 in 10.0 mi NE 9.2 mph - N/A   Overcast
3:53 AM -2.9 °F -19.8 °F -9.9 °F 72% 30.52 in 10.0 mi NE 10.4 mph - N/A   Overcast
4:53 AM -2.9 °F -19.8 °F -11.0 °F 68% 30.53 in 10.0 mi NE 10.4 mph - N/A   Overcast
5:53 AM -4.0 °F -20.2 °F -11.9 °F 69% 30.56 in 10.0 mi ENE 9.2 mph - N/A   Overcast
6:53 AM -4.0 °F -17.8 °F -11.0 °F 72% 30.59 in 10.0 mi East 6.9 mph - N/A   Overcast
7:44 AM -2.2 °F -10.4 °F -9.4 °F 71% 30.36 in 10.0 mi East 3.5 mph - N/A   Overcast
7:53 AM -2.9 °F -15.0 °F -11.0 °F 68% 30.60 in 10.0 mi East 5.8 mph - N/A   Overcast
8:53 AM -2.0 °F -16.6 °F -9.9 °F 69% 30.57 in 10.0 mi ENE 8.1 mph - N/A   Overcast
9:53 AM -2.0 °F - -9.0 °F 72% 30.63 in 10.0 mi Calm Calm - N/A   Overcast
10:53 AM -0.0 °F -9.9 °F -9.0 °F 66% 30.61 in 10.0 mi East 4.6 mph - N/A   Overcast
11:53 AM 1.9 °F - -7.1 °F 66% 30.57 in 10.0 mi Calm Calm - N/A   Overcast
12:53 PM 3.9 °F - -7.1 °F 60% 30.54 in 10.0 mi Calm Calm - N/A   Overcast
1:17 PM 3.2 °F - -7.6 °F 61% 30.30 in 10.0 mi Calm Calm - N/A   Overcast
1:32 PM 3.2 °F - -7.6 °F 61% 30.29 in 10.0 mi Calm Calm - N/A   Scattered Clouds
1:53 PM 3.9 °F -5.3 °F -5.1 °F 66% 30.51 in 10.0 mi East 4.6 mph - N/A   Mostly Cloudy
2:53 PM 5.0 °F -4.1 °F -5.1 °F 63% 30.51 in 10.0 mi East 4.6 mph - N/A   Partly Cloudy
3:53 PM 3.9 °F -6.9 °F -5.1 °F 66% 30.51 in 10.0 mi East 5.8 mph - N/A   Scattered Clouds
4:16 PM 3.2 °F -6.2 °F -5.8 °F 66% 30.28 in 10.0 mi East 4.6 mph - N/A   Mostly Cloudy
4:23 PM 3.2 °F -6.2 °F -5.8 °F 66% 30.28 in 10.0 mi East 4.6 mph - N/A   Mostly Cloudy
4:30 PM 3.2 °F -6.2 °F -5.8 °F 66% 30.29 in 10.0 mi East 4.6 mph - N/A   Mostly Cloudy
4:53 PM 3.9 °F -5.3 °F -5.1 °F 66% 30.52 in 10.0 mi East 4.6 mph - N/A   Overcast
5:07 PM 3.2 °F -4.2 °F -5.8 °F 66% 30.29 in 10.0 mi ENE 3.5 mph - N/A   Overcast
5:53 PM 3.9 °F -8.2 °F -4.0 °F 70% 30.52 in 10.0 mi East 6.9 mph - N/A   Overcast
6:53 PM 3.9 °F -8.2 °F -4.0 °F 70% 30.53 in 10.0 mi SE 6.9 mph - N/A   Overcast
7:53 PM 1.9 °F -9.2 °F -5.1 °F 72% 30.54 in 10.0 mi SSE 5.8 mph - N/A   Clear
8:53 PM -0.0 °F -11.6 °F -6.0 °F 76% 30.56 in 10.0 mi SE 5.8 mph - N/A   Clear
9:53 PM -0.0 °F -13.0 °F -6.0 °F 76% 30.56 in 10.0 mi SE 6.9 mph - N/A   Clear
10:53 PM 1.0 °F -12.9 °F -4.0 °F 79% 30.53 in 10.0 mi SSE 8.1 mph - N/A   Clear
11:53 PM 1.9 °F -12.9 °F -4.0 °F 76% 30.51 in 10.0 mi SSE 9.2 mph - N/A   Clear